Satellite: METEOR-M Catalog number: 35865 Epoch time: 11006.64893187 Element set: 988 Inclination: 098.7319 deg RA of node: 063.6946 deg Eccentricity: 0.0002930 Arg of perigee: 123.2974 deg Mean anomaly: 236.8454 deg Mean motion: 14.21833934 rev/day Decay rate: 1.76e-06 rev/day^2 Epoch rev: 6763 Checksum: 335
Satellite: RS-38 Catalog number: 35869 Epoch time: 11006.66818595 Element set: 0 Inclination: 098.7293 deg RA of node: 063.7533 deg Eccentricity: 0.0005117 Arg of perigee: 130.5111 deg Mean anomaly: 229.6489 deg Mean motion: 14.21997411 rev/day Decay rate: 1.77e-06 rev/day^2 Epoch rev: 6764 Checksum: 316
/EX
participants (1)
-
Ray Hoad